EW9741 Weather Reports


Display with metric or nautical units.
time (UTC)temp
F
wind
direction
speed
MPH
gust
MPH
rain 1hr
in
rain 24hr
in
rain mn
in
humidity
%
barometer
mb
20260508083045 46 190 0.0 0.0 0.00 0.00 0.00 68 1013.1
20260508081545 46 190 0.0 0.0 0.00 0.00 0.00 68 1013.0
20260508080036 46 190 0.0 0.0 0.00 0.00 0.00 67 1013.1
20260508074540 46 190 0.0 0.0 0.00 0.00 0.00 67 1013.1
20260508073034 46 190 0.0 0.0 0.00 0.00 0.00 66 1013.1
20260508071505 46 190 0.0 0.0 0.00 0.00 0.00 66 1013.1
20260508070002 46 190 0.0 0.0 0.00 0.00 0.00 66 1013.1
20260508064559 47 190 0.0 0.0 0.00 0.00 0.00 64 1013.5
20260508063104 47 190 0.0 0.0 0.00 0.00 0.00 64 1013.6
20260508061606 47 190 0.0 0.0 0.00 0.00 0.00 64 1013.7
20260508060058 47 190 0.0 0.0 0.00 0.00 0.00 64 1013.8
20260508054556 47 190 0.0 0.0 0.00 0.00 0.00 66 1013.8
20260508053101 47 190 0.0 0.0 0.00 0.00 0.00 65 1013.8
20260508051605 47 190 0.0 0.0 0.00 0.00 0.00 65 1013.7
20260508050054 47 190 0.0 0.0 0.00 0.00 0.00 63 1013.7
20260508044548 48 190 0.0 0.0 0.00 0.00 0.00 63 1013.7
20260508043052 47 190 0.0 0.0 0.00 0.00 0.00 63 1013.6
20260508041546 47 190 0.0 0.0 0.00 0.00 0.00 64 1013.6
20260508040045 48 190 0.0 0.0 0.00 0.00 0.00 63 1013.5
20260508034548 48 190 0.0 0.0 0.00 0.00 0.00 63 1013.6
20260508033040 48 190 0.0 0.0 0.00 0.00 0.00 60 1013.7
20260508031537 49 190 0.0 0.0 0.00 0.00 0.00 57 1013.6
20260508030036 50 190 0.0 0.0 0.00 0.00 0.00 55 1013.7
20260508024504 50 190 0.0 0.0 0.00 0.00 0.00 55 1013.6
20260508023006 50 190 0.0 0.0 0.00 0.00 0.00 55 1013.5
20260508021500 49 190 0.0 0.0 0.00 0.00 0.00 59 1013.5
20260508020101 50 190 0.0 0.0 0.00 0.00 0.00 59 1013.5
20260508014559 50 190 0.0 0.0 0.00 0.00 0.00 58 1013.5
20260508013054 51 190 0.0 0.0 0.00 0.00 0.00 54 1013.5
20260508011522 53 190 0.0 0.0 0.00 0.00 0.00 47 1013.4
20260508010018 53 190 0.0 0.0 0.00 0.00 0.00 47 1013.3
20260508004511 55 190 0.0 0.0 0.00 0.00 0.00 46 1013.2
20260508003006 56 190 0.0 0.0 0.00 0.00 0.00 43 1013.1
20260508001502 57 190 0.0 0.0 0.00 0.00 0.00 39 1013.0
20260508000101 58 190 0.0 0.0 0.00 0.00 0.00 38 1013.0
20260507234558 60 190 0.0 0.0 0.00 0.00 0.00 36 1012.9
20260507233056 59 190 0.0 0.0 0.00 0.00 0.00 36 1012.9
20260507231558 59 190 0.0 0.0 0.00 0.00 0.00 36 1012.7
20260507230051 60 190 0.0 0.0 0.00 0.00 0.00 34 1012.8
20260507224549 60 190 0.0 0.0 0.00 0.00 0.00 35 1012.8
20260507223054 60 190 0.0 0.0 0.00 0.00 0.00 34 1012.8
20260507221547 61 190 0.0 0.0 0.00 0.00 0.00 35 1012.8
20260507220043 60 190 0.0 0.0 0.00 0.00 0.00 35 1012.9
20260507214540 60 190 0.0 2.0 0.00 0.00 0.00 37 1013.0
20260507213046 59 190 0.0 0.0 0.00 0.00 0.00 37 1013.0
20260507211539 59 190 0.0 0.0 0.00 0.00 0.00 35 1013.0
20260507210043 59 190 0.0 0.0 0.00 0.00 0.00 36 1012.8
20260507204507 59 190 0.0 0.0 0.00 0.00 0.00 36 1012.9
20260507203010 59 190 0.0 0.0 0.00 0.00 0.00 38 1012.8
20260507201503 59 190 0.0 11.0 0.00 0.00 0.00 37 1012.9
20260507200002 59 190 1.0 9.0 0.00 0.00 0.00 36 1012.9
20260507194604 58 190 0.0 0.0 0.00 0.00 0.00 39 1013.1
20260507193100 58 190 0.0 6.0 0.00 0.00 0.00 40 1013.1
20260507191600 58 190 1.0 13.0 0.00 0.00 0.00 40 1013.2
20260507184601 58 190 0.0 13.0 0.00 0.00 0.00 39 1013.3
20260507183056 57 190 3.0 12.0 0.00 0.00 0.00 38 1013.5
20260507181555 57 190 0.0 9.0 0.00 0.00 0.00 39 1013.4
20260507180052 57 190 0.0 7.0 0.00 0.00 0.00 40 1013.5
20260507174601 56 190 0.0 0.0 0.00 0.00 0.00 41 1013.8
20260507173051 56 190 0.0 0.0 0.00 0.00 0.00 42 1013.9
20260507171601 56 190 0.0 5.0 0.00 0.00 0.00 43 1014.2
20260507170051 55 190 0.0 0.0 0.00 0.00 0.00 43 1014.3
20260507164548 54 190 0.0 3.0 0.00 0.00 0.00 42 1014.4
20260507163046 54 190 0.0 9.0 0.00 0.00 0.00 43 1014.5
20260507161545 54 190 0.0 6.0 0.00 0.00 0.00 43 1014.4
20260507160047 54 190 0.0 7.0 0.00 0.00 0.00 44 1014.5
20260507154541 54 190 0.0 0.0 0.00 0.00 0.00 43 1014.5
20260507153040 53 190 0.0 7.0 0.00 0.00 0.00 43 1014.4
20260507151542 53 190 0.0 0.0 0.00 0.00 0.00 45 1014.4
20260507150039 53 190 0.0 0.0 0.00 0.00 0.00 44 1014.2
20260507144602 52 190 0.0 0.0 0.00 0.00 0.00 44 1014.3
20260507143036 51 190 0.0 9.0 0.00 0.00 0.00 49 1014.4
20260507141538 51 190 0.0 0.0 0.00 0.00 0.00 47 1014.4
20260507140033 50 190 0.0 4.0 0.00 0.00 0.00 50 1014.5
20260507134533 50 190 0.0 9.0 0.00 0.00 0.00 50 1014.4
20260507133036 50 190 0.0 0.0 0.00 0.00 0.00 50 1014.6
20260507131531 49 190 0.0 0.0 0.00 0.00 0.00 54 1014.5
20260507130110 49 190 1.0 9.0 0.00 0.00 0.00 54 1014.3
20260507124608 48 190 0.0 0.0 0.00 0.00 0.00 62 1014.4
20260507123057 47 190 0.0 0.0 0.00 0.00 0.00 67 1014.5
20260507121556 46 190 0.0 5.0 0.00 0.00 0.00 69 1014.5
20260507120056 45 190 0.0 0.0 0.00 0.00 0.00 71 1014.5
20260507114558 44 190 0.0 4.0 0.00 0.00 0.00 75 1014.4
20260507113024 43 190 0.0 0.0 0.00 0.00 0.00 79 1014.4
20260507111534 42 190 0.0 0.0 0.00 0.00 0.00 82 1014.2
20260507110018 41 190 0.0 0.0 0.00 0.00 0.00 84 1014.0
20260507104520 41 190 0.0 0.0 0.00 0.00 0.00 85 1014.0
20260507103015 41 190 0.0 0.0 0.00 0.00 0.00 85 1013.9
20260507101515 42 190 0.0 0.0 0.00 0.00 0.00 86 1013.9
20260507100016 42 190 0.0 0.0 0.00 0.00 0.00 84 1013.8
20260507094511 42 190 0.0 0.0 0.00 0.00 0.00 85 1013.8
20260507093014 42 190 0.0 0.0 0.00 0.00 0.00 86 1013.7
20260507091510 42 190 0.0 0.0 0.00 0.00 0.00 87 1013.6
20260507090039 42 190 0.0 0.0 0.00 0.00 0.00 87 1013.6
20260507084544 42 190 0.0 0.0 0.00 0.02 0.00 88 1013.5